[[{"header":{"parameterUnit":"m.s-1","parameterCategory":1,"la1":30.2991,"la2":30.254,"lo1":-89.0895,"lo2":-89.0444,"dy":0.0017,"dx":0.0017,"nx":28,"ny":28,"refTime":"2025-04-05T03:00:00:Z","depth":0,"parameterNumber":2,"parameterNumberName":"U-component_of_WINDS"},"data":[0,0,0,0,0,0,0,0,0,0,0,0,0,0,0,0,0,0,0,0,0,0,0,0,0,0,0,0,0,0,0,0,0,0,0,0,0,0,0,0,0,0,0,0,0,0,0,0,0,0,0,0,0,0,0,0,0,0,4.0232,4.0234,0,4.0474,4.0476,4.0479,4.0484,4.0481,4.0478,4.0476,4.0724,4.0733,4.0743,0,0,0,0,0,0,0,0,0,0,0,0,0,3.9778,3.9786,4.0232,4.0235,4.0238,4.0473,4.0477,4.048,4.0485,4.0481,4.0478,4.0474,4.0721,4.0732,4.0743,0,0,0,0,0,0,0,0,0,0,0,0,0,3.9993,3.9789,4.0231,4.0269,4.0274,4.0473,4.0477,4.0481,4.0486,4.0481,4.0477,4.0472,4.0717,4.0731,4.0745,4.0922,0,0,4.0788,4.0794,0,0,0,0,0,0,0,0,3.998,4.0009,4.026,4.0266,4.0273,4.0444,4.0408,4.0629,4.0487,4.0406,4.0475,4.047,4.0635,4.0655,4.0711,4.0934,4.0944,4.0789,4.0798,4.0804,4.0808,0,0,0,0,0,0,0,3.9966,3.9999,4.0327,4.0264,4.0272,4.0275,4.03,4.045,4.0542,4.0412,4.0413,4.0442,4.0637,4.0697,4.0716,4.0948,4.0789,4.0801,4.081,4.0816,4.1332,4.1337,0,0,0,0,0,0,3.9943,3.9987,4.032,4.0335,4.0113,4.0286,4.0315,4.0394,4.0541,4.0559,4.0445,4.0441,4.0675,4.07,4.0725,4.0945,4.0804,4.0817,4.0825,4.1327,4.1334,4.1339,0,0,0,0,0,0,3.9933,3.9973,4.031,4.0161,4.0204,4.0299,4.0388,4.0401,4.0461,4.0566,4.0583,4.0489,4.0672,4.0705,4.0874,4.0953,4.0823,4.0836,4.1321,4.1329,4.1336,4.1383,0,0,0,0,0,0,3.992,3.9969,4.0036,4.0163,4.0212,4.0454,4.0392,4.0409,4.0485,4.0482,4.0611,4.0628,4.0671,4.0853,4.0888,4.097,4.0847,4.1314,4.1325,4.1334,4.1375,4.1392,4.1406,0,0,0,0,0,3.9904,4.0039,4.004,4.008,4.0298,4.0458,4.0487,4.0533,4.0491,4.056,4.0629,4.0624,4.0939,4.087,4.091,4.0997,4.1309,4.1322,4.1333,4.1368,4.1388,4.1406,0,0,0,0,0,0,3.992,4.0056,4.0058,4.0238,4.0337,4.0459,4.0547,4.0553,4.0665,4.0658,4.0711,4.0741,4.0909,4.097,4.0891,4.1178,4.1119,4.1139,4.1132,4.1152,4.1168,4.115,4.0859,0,0,0,0,0,3.9944,4.0062,4.0175,4.0323,4.0373,4.0452,4.0523,4.0551,4.0655,4.0697,4.0777,4.0878,4.1001,4.108,4.1198,4.1384,4.1413,4.1464,4.1479,4.1492,4.1509,4.1614,4.1639,4.1378,4.1378,4.1378,0,0,3.9996,4.0085,4.0156,4.0329,4.0408,4.0531,4.0487,4.0617,4.0709,4.0717,4.0881,4.0944,4.1061,4.124,4.1323,4.1296,4.1588,4.1507,4.1516,4.1526,4.1629,4.1654,4.1676,4.1386,4.1385,4.1383,0,0,4.0153,4.0231,4.0365,4.0446,4.0567,4.0619,4.0651,4.0773,4.0816,4.0982,4.0991,4.1101,4.1309,4.1393,4.1463,4.1656,4.1657,4.1692,4.1773,4.1876,4.1896,4.1915,4.1985,4.201,4.1709,4.1709,4.1709,0,4.0201,4.0385,4.0432,4.0564,4.0641,4.0655,4.0791,4.0868,4.1021,4.1075,4.1042,4.1306,4.1386,4.1586,4.1633,4.1689,4.1728,4.1678,4.189,4.1909,4.1927,4.1995,4.2021,4.1713,4.1712,4.1712,4.1712,0,4.0441,4.0569,4.0662,4.0811,4.0898,4.1031,4.11,4.1183,4.1204,4.126,4.1431,4.1527,4.1666,4.1715,4.1736,4.192,4.19,4.1878,4.182,4.1954,4.2019,4.2045,4.1718,4.1717,4.1716,4.1715,0,0,4.0613,4.0788,4.0822,4.0891,4.1027,4.1127,4.1262,4.1398,4.147,4.1576,4.1692,4.1869,4.1851,4.193,4.1961,4.2051,4.22,4.2019,4.2023,4.2051,4.241,4.2426,4.2456,4.2201,4.2206,4.2211,4.2401,0,4.0786,4.1026,4.1074,4.1283,4.1403,4.1419,4.1537,4.1634,4.169,4.1801,4.1864,4.199,4.1955,4.2003,4.2093,4.2163,4.2273,4.215,4.2311,4.2316,4.2282,4.2489,4.2506,4.2681,4.2426,4.2431,4.2434,0,4.1019,4.1132,4.1353,4.1476,4.1528,4.1633,4.1764,4.1869,4.198,4.2015,4.2106,4.2128,4.227,4.2205,4.2404,4.2319,4.2388,4.2433,4.2441,4.2458,4.2384,4.2514,4.2738,4.2765,4.2474,4.2471,4.2468,0,4.1125,4.1332,4.1492,4.1551,4.1697,4.1771,4.1836,4.1943,4.2023,4.2137,4.219,4.2318,4.2389,4.2489,4.2546,4.2493,4.2742,4.268,4.2776,4.2775,4.2828,4.2824,4.3067,4.287,4.287,4.2869,4.2869,0,4.1314,4.1449,4.1542,4.164,4.1793,4.1848,4.1998,4.2062,4.2157,4.2269,4.2291,4.2396,4.2464,4.2579,4.2624,4.2783,4.2815,4.2848,4.2859,4.2847,4.2843,4.2893,4.2883,4.2876,4.2875,4.2873,4.2872,0,4.1458,4.1525,4.1701,4.1826,4.1861,4.1968,4.2076,4.2173,4.223,4.2372,4.2409,4.2499,4.2636,4.2703,4.2872,4.2903,4.3084,4.3086,4.3046,4.3051,4.3143,4.3134,4.3428,4.3471,4.3244,4.3246,4.3248,0,4.1574,4.1679,4.1816,4.1893,4.1959,4.2083,4.2165,4.2223,4.2308,4.2444,4.2526,4.2664,4.2777,4.2995,4.3077,4.3207,4.3214,4.3308,4.3233,4.3219,4.3217,4.3211,4.3222,4.3321,4.3323,4.3325,4.3327,0,4.1774,4.1803,4.192,4.2051,4.2149,4.2254,4.2357,4.2419,4.2495,4.2589,4.273,4.2818,4.2993,4.313,4.3267,4.3334,4.3345,4.335,4.3379,4.3369,4.3342,4.3359,4.3084,4.3343,4.3341,4.334,4.3339,4.3338,4.1909,4.2004,4.2116,4.2247,4.2332,4.2429,4.2527,4.2597,4.2716,4.2862,4.289,4.304,4.3151,4.3336,4.3408,4.3527,4.3506,4.3548,4.3559,4.3569,4.3574,4.3322,4.3552,4.3552,4.3551,4.3551,4.3551,0,4.2112,4.2186,4.2306,4.2451,4.2554,4.2555,4.267,4.2757,4.2889,4.2992,4.3104,4.3267,4.3401,4.3493,4.363,4.3707,4.3716,4.3741,4.3737,4.3753,4.3584,4.3546,4.3733,4.3733,4.3733,4.3733,4.3733,4.3732,4.223,4.2391,4.2434,4.2638,4.2711,4.2858,4.2925,4.3015,4.3098,4.3279,4.3391,4.345,4.355,4.3694,4.3818,4.3842,4.3892,4.3918,4.3942,4.3783,4.3764,4.3746,4.371,4.3928,4.3929,4.4101,4.4102,4.4104]},{"header":{"parameterUnit":"m.s-1","parameterCategory":1,"la1":30.2991,"la2":30.254,"lo1":-89.0895,"lo2":-89.0444,"dy":0.0017,"dx":0.0017,"nx":28,"ny":28,"refTime":"2025-04-05T03:00:00:Z","depth":0,"parameterNumber":3,"parameterNumberName":"V-component_of_WINDS"},"data":[0,0,0,0,0,0,0,0,0,0,0,0,0,0,0,0,0,0,0,0,0,0,0,0,0,0,0,0,0,0,0,0,0,0,0,0,0,0,0,0,0,0,0,0,0,0,0,0,0,0,0,0,0,0,0,0,0,0,-1.7835,-1.7829,0,-1.7242,-1.7235,-1.7228,-1.6959,-1.696,-1.6961,-1.6962,-1.6321,-1.6304,-1.6286,0,0,0,0,0,0,0,0,0,0,0,0,0,-1.8702,-1.8687,-1.7836,-1.7828,-1.7821,-1.7243,-1.7235,-1.7227,-1.6959,-1.696,-1.6961,-1.6962,-1.6327,-1.6306,-1.6285,0,0,0,0,0,0,0,0,0,0,0,0,0,-1.8238,-1.8683,-1.7837,-1.7619,-1.7593,-1.7245,-1.7235,-1.7225,-1.6959,-1.696,-1.6961,-1.6962,-1.6334,-1.6308,-1.6282,-1.6096,0,0,-1.62,-1.6189,0,0,0,0,0,0,0,0,-1.8265,-1.8206,-1.7658,-1.7633,-1.7604,-1.7177,-1.7305,-1.6845,-1.6959,-1.7199,-1.6962,-1.6963,-1.6602,-1.6554,-1.6439,-1.6066,-1.6038,-1.6198,-1.6182,-1.617,-1.6163,0,0,0,0,0,0,0,-1.8297,-1.823,-1.7599,-1.765,-1.7617,-1.7538,-1.7474,-1.7217,-1.69,-1.7178,-1.7157,-1.7092,-1.6588,-1.6466,-1.6422,-1.6029,-1.6199,-1.6175,-1.6159,-1.6148,-1.5465,-1.5462,0,0,0,0,0,0,-1.837,-1.8259,-1.7618,-1.7582,-1.7945,-1.7522,-1.745,-1.7312,-1.6903,-1.6842,-1.7092,-1.7082,-1.651,-1.6453,-1.6399,-1.615,-1.6171,-1.6146,-1.613,-1.5467,-1.5464,-1.5462,0,0,0,0,0,0,-1.839,-1.8315,-1.7642,-1.7915,-1.7823,-1.7507,-1.7353,-1.73,-1.7178,-1.6839,-1.6777,-1.7028,-1.6509,-1.6436,-1.6174,-1.6124,-1.6134,-1.611,-1.5469,-1.5466,-1.5463,-1.5655,0,0,0,0,0,0,-1.8416,-1.8324,-1.8259,-1.7916,-1.781,-1.7439,-1.7351,-1.7287,-1.7137,-1.7118,-1.6762,-1.6704,-1.6504,-1.6215,-1.6148,-1.6088,-1.6089,-1.5472,-1.5468,-1.5464,-1.5652,-1.5659,-1.5665,0,0,0,0,0,-1.8448,-1.8331,-1.8257,-1.8181,-1.7724,-1.7437,-1.7375,-1.7158,-1.7134,-1.706,-1.6841,-1.6715,-1.6142,-1.6191,-1.6112,-1.6044,-1.5474,-1.5469,-1.5464,-1.5649,-1.5657,-1.5665,0,0,0,0,0,0,-1.8665,-1.8282,-1.8196,-1.7967,-1.7738,-1.7393,-1.7293,-1.7174,-1.6939,-1.693,-1.6659,-1.658,-1.6341,-1.6164,-1.6226,-1.5838,-1.5795,-1.5775,-1.5963,-1.5968,-1.5975,-1.602,-1.6067,0,0,0,0,0,-1.8689,-1.85,-1.817,-1.7998,-1.7889,-1.7612,-1.7479,-1.7332,-1.7079,-1.6977,-1.6739,-1.6489,-1.6251,-1.61,-1.5863,-1.5625,-1.5538,-1.5538,-1.5545,-1.5553,-1.5536,-1.539,-1.5384,-1.5445,-1.5445,-1.5445,0,0,-1.8731,-1.8498,-1.8393,-1.8037,-1.7842,-1.7641,-1.7531,-1.7324,-1.7168,-1.6941,-1.6682,-1.6498,-1.6199,-1.5949,-1.5826,-1.5795,-1.55,-1.5546,-1.5555,-1.5533,-1.5385,-1.5379,-1.5374,-1.5442,-1.5443,-1.5443,0,0,-1.8705,-1.8514,-1.835,-1.8158,-1.7868,-1.7684,-1.7645,-1.7316,-1.7189,-1.6927,-1.6751,-1.6556,-1.6155,-1.5948,-1.5791,-1.5686,-1.5557,-1.5615,-1.5647,-1.5509,-1.5504,-1.5498,-1.5455,-1.5443,-1.56,-1.5601,-1.5601,0,-1.8792,-1.8494,-1.8276,-1.808,-1.7924,-1.772,-1.7544,-1.7365,-1.7008,-1.6899,-1.6873,-1.6364,-1.6148,-1.5843,-1.5819,-1.5699,-1.5637,-1.5653,-1.5525,-1.5516,-1.5507,-1.5463,-1.5448,-1.5609,-1.5608,-1.5607,-1.5606,0,-1.8611,-1.8406,-1.8305,-1.7978,-1.781,-1.7625,-1.7368,-1.7222,-1.7089,-1.6905,-1.6634,-1.637,-1.6074,-1.599,-1.5854,-1.5663,-1.5653,-1.5579,-1.553,-1.5514,-1.5467,-1.5449,-1.5622,-1.5618,-1.5616,-1.5614,0,0,-1.8705,-1.8263,-1.8229,-1.8076,-1.774,-1.7571,-1.7371,-1.7092,-1.697,-1.6728,-1.6547,-1.6213,-1.6142,-1.5963,-1.5801,-1.568,-1.5606,-1.5618,-1.5607,-1.5622,-1.5371,-1.5428,-1.5413,-1.5522,-1.5517,-1.5514,-1.5395,0,-1.8631,-1.8279,-1.8076,-1.7801,-1.7604,-1.7405,-1.7229,-1.6998,-1.6819,-1.6616,-1.6412,-1.6178,-1.6106,-1.5996,-1.5868,-1.5644,-1.5552,-1.5649,-1.5339,-1.5331,-1.5419,-1.5389,-1.5447,-1.5348,-1.5376,-1.5373,-1.537,0,-1.8498,-1.8273,-1.7983,-1.7667,-1.7576,-1.7424,-1.7149,-1.6961,-1.669,-1.6567,-1.637,-1.6208,-1.5977,-1.5949,-1.5622,-1.5693,-1.5552,-1.5423,-1.5413,-1.5372,-1.5349,-1.5342,-1.5312,-1.5296,-1.534,-1.5343,-1.5345,0,-1.8593,-1.8214,-1.7991,-1.7866,-1.7493,-1.7389,-1.7226,-1.6958,-1.6802,-1.6557,-1.6451,-1.618,-1.603,-1.5818,-1.5582,-1.5586,-1.5275,-1.5229,-1.5158,-1.5164,-1.5099,-1.5105,-1.5042,-1.5016,-1.5017,-1.5017,-1.5017,0,-1.8529,-1.8358,-1.8028,-1.7891,-1.7689,-1.7452,-1.7254,-1.7073,-1.6836,-1.665,-1.6457,-1.6285,-1.5988,-1.5774,-1.5587,-1.534,-1.5274,-1.516,-1.5112,-1.5176,-1.519,-1.5077,-1.5076,-1.5013,-1.5014,-1.5015,-1.5015,0,-1.86,-1.8374,-1.8116,-1.7786,-1.7698,-1.7564,-1.7274,-1.7126,-1.6938,-1.6705,-1.6635,-1.6335,-1.6074,-1.5821,-1.5467,-1.534,-1.5093,-1.5031,-1.5189,-1.5162,-1.5103,-1.5111,-1.4961,-1.4926,-1.4931,-1.4932,-1.4932,0,-1.8574,-1.8439,-1.8096,-1.7964,-1.7809,-1.7597,-1.7439,-1.7196,-1.7037,-1.6717,-1.6605,-1.6333,-1.6101,-1.5691,-1.5433,-1.5159,-1.5086,-1.5053,-1.5043,-1.511,-1.5079,-1.5089,-1.5071,-1.5058,-1.5059,-1.5061,-1.5061,0,-1.8549,-1.8444,-1.8231,-1.7976,-1.7796,-1.7581,-1.7357,-1.7256,-1.6968,-1.6797,-1.6534,-1.6356,-1.5998,-1.5726,-1.5423,-1.524,-1.5098,-1.5068,-1.5035,-1.5097,-1.5193,-1.5135,-1.5203,-1.5071,-1.507,-1.5069,-1.5069,-1.5068,-1.8566,-1.8436,-1.8175,-1.7941,-1.775,-1.7546,-1.7391,-1.7186,-1.6966,-1.6664,-1.653,-1.6263,-1.5984,-1.5565,-1.5385,-1.5164,-1.5128,-1.5084,-1.5071,-1.5063,-1.5075,-1.5233,-1.5107,-1.5106,-1.5106,-1.5105,-1.5105,0,-1.8528,-1.8352,-1.814,-1.7839,-1.7652,-1.7548,-1.7294,-1.7141,-1.6912,-1.6672,-1.645,-1.6143,-1.5877,-1.56,-1.5315,-1.519,-1.5117,-1.5123,-1.5127,-1.5086,-1.5125,-1.5179,-1.5186,-1.5186,-1.5186,-1.5187,-1.5187,-1.5187,-1.8487,-1.826,-1.8123,-1.7794,-1.7613,-1.736,-1.7223,-1.7028,-1.6835,-1.6506,-1.6288,-1.6113,-1.5853,-1.5548,-1.5295,-1.5219,-1.512,-1.5143,-1.5048,-1.5089,-1.5084,-1.5079,-1.5129,-1.5125,-1.5125,-1.5026,-1.5026,-1.5025]}]]